Wind_Speed
14 13 13 14 16 16 16 18 20 21 21 20 18 18 18 13 5 3 4 4 5 10 14 14 13 15 18 21 25 28 26 25 25 22 23 27 28 26 25 25 25 24 24 25 26 26 26 26 26 26 25 25 24 24 23 22 23 23 22 21 20 20 19 18 18 18 18 19 18 18 19 19 20 21
13 12 11 11 13 15 15 16 19 20 20 19 18 18 19 17 12 5 3 3 4 8 11 12 10 11 13 16 20 24 25 24 24 23 21 23 25 25 25 25 24 24 23 23 24 25 24 25 26 27 26 26 25 25 24 23 23 24 23 22 22 21 21 20 19 18 18 18 18 18 19 19 19 20
13 12 11 11 11 13 14 15 17 20 20 20 19 18 17 17 17 13 6 3 4 8 10 11 9 8 10 13 15 17 18 20 23 22 20 22 21 20 22 24 23 23 23 23 23 23 23 23 24 25 26 26 26 25 24 24 24 24 24 24 23 23 22 22 21 19 18 18 18 18 18 19 19 19
14 12 11 12 12 12 12 13 16 18 20 20 19 17 17 17 18 17 12 5 6 10 11 9 7 5 8 11 13 14 16 18 20 20 21 24 21 17 20 23 23 22 22 22 23 23 22 22 22 23 24 25 26 25 24 24 24 24 24 24 24 23 23 22 21 20 19 19 18 18 17 17 17 18
13 12 12 12 12 11 11 12 13 16 19 20 18 18 19 19 19 19 15 9 7 10 12 12 9 6 8 11 11 12 15 17 16 16 20 23 20 16 16 19 23 24 23 21 22 23 23 22 22 21 21 22 23 24 24 24 24 23 23 23 23 23 23 22 21 21 20 19 19 18 18 17 17 17
12 12 12 11 11 11 10 12 13 14 16 17 18 20 20 19 19 19 18 13 9 8 11 13 12 9 10 10 9 10 12 14 12 14 19 20 17 14 13 14 19 23 24 24 22 22 23 23 22 22 21 20 21 21 22 22 22 22 22 22 22 22 22 21 21 21 20 20 19 19 19 18 18 17
13 13 10 8 10 11 9 10 12 15 15 14 16 18 18 17 16 16 17 15 12 9 8 9 11 11 12 10 9 10 11 10 9 11 16 16 15 13 11 11 14 17 20 23 23 21 21 22 22 21 21 20 20 21 21 21 21 22 22 22 22 22 22 22 21 21 20 20 19 19 19 19 19 18
13 13 11 9 9 10 8 9 10 11 12 13 14 15 16 16 15 14 15 16 15 12 9 10 12 13 14 11 8 10 11 9 7 8 11 12 14 15 12 9 10 12 14 18 22 22 21 21 22 21 21 20 20 20 21 21 22 22 23 23 23 23 23 22 22 21 20 20 20 19 19 19 19 19
13 12 11 10 8 8 9 9 9 8 9 10 12 13 14 15 14 13 13 15 16 14 12 13 15 14 14 13 10 11 13 11 8 7 8 10 11 12 11 6 7 10 12 14 19 21 21 21 21 21 21 21 21 21 22 23 23 24 24 24 24 24 24 23 23 22 22 22 21 21 21 20 20 20
13 12 12 10 8 6 7 8 9 8 8 9 10 12 14 13 12 12 13 13 14 15 14 14 14 14 13 13 13 12 12 12 10 9 9 9 8 8 9 8 7 9 9 10 13 16 18 19 20 20 21 21 21 22 23 23 24 24 24 24 24 24 24 24 24 24 24 23 23 22 21 21 21 21
13 12 12 11 8 5 5 7 7 7 6 6 7 8 11 10 9 10 12 11 11 14 14 13 14 14 13 12 13 12 11 11 10 10 9 9 8 9 11 12 11 9 9 9 10 10 11 14 16 17 19 21 22 23 24 24 24 24 24 24 24 24 24 24 24 25 24 24 24 23 22 23 23 22
13 12 11 9 7 5 5 5 3 3 3 3 3 3 4 6 6 6 8 7 8 10 10 11 11 11 12 12 12 14 14 11 7 7 7 9 11 11 12 12 11 9 9 10 10 9 8 9 9 11 14 16 19 21 22 23 25 25 25 24 23 23 23 23 23 24 24 24 23 21 20 20 20 20
13 12 9 7 6 5 5 4 0 2 2 2 2 1 1 1 2 2 2 2 3 4 5 8 9 9 11 11 11 14 17 13 7 6 7 9 11 12 12 10 8 8 10 11 10 8 7 8 8 8 10 12 14 16 17 18 19 19 19 19 17 16 17 18 18 19 18 18 16 14 12 12 13 13
13 12 9 6 5 3 2 1 1 2 2 3 3 3 2 1 1 1 1 3 3 2 2 5 6 8 11 11 9 11 14 14 11 10 10 10 11 12 11 9 8 9 10 11 11 9 8 9 9 8 9 12 13 12 11 12 12 11 10 9 7 7 8 8 9 10 9 8 7 5 5 5 5 6
13 12 9 7 5 3 2 1 3 3 3 3 3 3 2 1 1 0 2 3 4 4 5 6 6 6 8 9 8 8 8 13 14 13 12 12 14 14 11 7 7 9 9 11 12 10 9 11 11 9 9 11 11 8 8 8 7 5 5 6 7 7 5 4 3 2 1 1 2 2 2 2 3 3
12 11 10 8 6 4 3 3 4 5 4 4 5 4 3 2 2 2 1 1 2 4 6 7 6 7 6 1 3 5 5 9 12 12 12 12 14 15 12 9 9 9 9 12 13 12 9 10 11 10 9 10 10 9 9 8 7 8 10 11 12 12 9 8 7 5 4 4 4 4 4 4 4 4
10 11 10 8 7 4 3 2 2 3 3 4 3 3 3 2 2 2 2 2 2 4 4 4 5 6 6 5 4 1 2 6 8 11 13 13 12 12 12 11 11 9 9 13 14 11 9 10 11 13 13 12 14 14 12 11 11 12 13 13 13 13 11 9 8 6 6 5 5 5 5 5 5 5
9 9 8 9 9 6 3 2 0 1 2 2 3 6 4 2 1 0 2 2 0 2 0 0 3 4 4 5 6 6 5 5 7 9 14 16 14 14 14 12 11 9 10 14 15 12 11 13 15 18 18 16 17 17 15 14 13 12 12 12 12 11 10 8 7 6 5 5 5 5 6 7 7 7
6 7 6 7 9 7 6 6 3 2 2 1 5 9 7 4 4 4 3 2 1 1 1 2 4 6 7 7 7 8 9 9 7 6 11 16 18 19 17 14 12 9 9 14 15 13 13 16 17 21 20 18 19 17 15 14 12 11 11 11 10 9 8 7 6 6 5 6 6 7 8 8 8 8
4 7 7 5 6 7 8 8 4 1 3 5 8 9 8 7 7 8 8 7 5 4 4 5 6 8 8 8 8 9 11 13 13 12 14 16 18 19 17 14 14 13 12 14 16 15 14 17 19 21 18 18 19 17 15 13 11 10 10 10 10 9 8 8 8 8 8 8 8 8 8 7 8 8
4 7 9 6 4 5 7 6 3 3 5 9 10 9 9 10 11 12 12 11 10 10 9 9 9 8 8 9 10 11 12 13 13 14 15 14 14 16 13 10 12 14 13 16 18 17 14 16 20 20 17 17 18 16 14 13 11 10 11 11 11 11 10 10 10 10 10 9 8 8 7 7 8 6
4 7 10 8 5 5 5 4 3 4 8 11 10 9 11 12 12 12 12 13 14 14 13 13 12 10 10 11 11 10 11 11 11 13 15 12 13 15 13 11 12 13 13 14 16 15 14 16 20 20 16 14 14 13 12 12 11 11 11 11 11 10 9 9 9 9 9 8 8 9 8 8 9 6
4 6 9 10 6 4 4 2 2 4 8 9 8 10 12 12 11 9 9 11 14 14 14 14 14 14 14 14 13 12 12 11 11 13 14 13 14 16 15 13 11 8 8 10 12 13 13 14 16 14 10 8 9 9 9 10 9 8 9 10 10 10 9 8 7 7 8 7 8 9 10 11 11 9
5 5 8 10 6 3 3 2 1 3 6 8 8 10 13 13 11 9 9 11 14 15 16 16 16 17 17 16 15 14 13 13 12 12 12 12 13 14 14 12 11 8 6 8 11 11 11 11 11 10 8 7 7 7 7 7 7 6 7 9 10 9 7 7 8 9 10 9 9 10 10 11 12 12
5 4 6 8 6 2 1 2 2 4 8 9 9 10 11 12 12 12 12 14 15 16 16 16 16 17 18 18 18 17 16 15 14 12 11 11 11 12 13 15 16 15 11 10 11 11 10 11 11 10 11 10 9 8 8 8 7 7 8 9 9 9 7 8 9 10 10 9 9 9 9 9 9 11
4 3 5 6 5 1 2 2 3 4 8 10 9 10 12 13 13 14 14 13 12 12 13 13 14 15 17 19 19 19 19 19 17 16 15 14 14 15 15 16 18 17 14 11 11 10 11 12 11 11 12 12 11 10 9 8 8 8 7 7 8 9 8 8 9 8 9 9 9 8 8 8 8 9
4 3 5 5 3 3 3 3 3 4 7 10 12 13 15 16 15 13 11 10 10 11 12 13 14 14 15 17 18 19 20 19 19 19 18 17 16 17 17 17 18 17 15 13 11 10 11 12 12 12 11 10 11 10 8 7 7 6 6 5 5 7 10 10 9 9 9 10 10 9 8 8 8 9
1 3 4 3 3 4 4 4 5 7 9 13 17 18 18 17 14 12 11 11 12 12 12 13 14 14 15 18 19 20 21 21 21 21 21 20 19 19 20 20 19 18 16 13 13 14 14 14 13 11 9 8 10 10 9 8 8 8 7 6 3 5 9 10 9 8 9 11 11 8 8 9 9 9
2 2 1 4 6 9 9 8 9 11 14 16 16 15 13 11 10 11 12 12 12 12 13 14 15 16 16 18 19 19 20 20 21 22 22 22 22 22 22 22 21 19 17 15 14 15 15 13 11 10 9 10 11 10 10 10 9 8 8 7 4 4 7 9 8 8 10 12 11 9 10 11 10 9
2 3 5 7 9 10 10 9 11 13 14 12 10 10 9 7 8 11 12 12 12 13 14 15 15 15 15 16 15 14 13 14 15 17 18 18 19 20 21 22 21 18 16 14 13 13 13 12 10 11 12 12 11 11 10 9 9 10 9 9 7 5 6 9 8 9 13 13 12 11 11 11 9 9
7 8 9 10 11 11 10 10 12 11 9 8 8 9 9 8 9 12 13 12 13 15 15 15 15 13 13 13 12 11 10 10 10 11 11 13 15 16 17 19 19 18 16 15 14 13 12 11 11 11 12 12 11 10 9 10 11 10 9 9 8 6 7 8 8 11 13 14 13 12 12 12 10 10
11 12 12 11 11 11 9 8 8 6 5 6 8 10 12 13 13 13 13 13 14 15 16 15 14 12 12 13 12 12 12 11 11 10 11 12 13 14 15 17 17 15 15 15 14 13 13 13 13 13 13 13 12 11 12 13 12 10 8 8 7 7 8 8 9 11 13 13 13 12 12 12 11 10
8 8 8 7 6 6 6 6 6 6 8 9 10 12 14 15 14 14 14 14 15 15 15 15 14 13 13 13 13 13 13 13 12 12 12 13 14 14 15 16 15 14 14 14 13 13 12 10 10 12 13 13 12 12 13 13 11 8 8 8 8 9 9 9 9 10 12 12 13 13 12 11 11 11
4 5 7 7 6 7 8 8 9 10 11 12 12 12 13 13 13 13 14 14 15 15 15 14 14 14 14 14 14 14 14 14 12 12 12 13 14 14 15 15 15 14 14 14 13 13 12 9 5 7 10 11 11 13 13 12 9 8 8 9 9 9 9 9 9 10 12 12 12 12 12 11 11 12
8 10 11 12 11 12 13 12 11 11 10 10 10 11 12 12 13 13 13 13 13 13 14 14 14 14 14 14 14 14 14 14 13 13 13 14 14 14 14 14 14 14 14 14 13 13 14 13 9 7 8 9 10 12 13 13 11 8 8 8 8 8 9 9 10 11 11 11 11 12 13 13 13 12
10 12 11 10 10 11 12 12 11 11 10 10 11 12 13 12 12 12 12 12 12 12 13 13 13 13 14 14 13 13 13 13 13 13 13 13 14 14 13 13 14 14 13 13 14 13 14 15 15 11 6 5 6 6 8 11 11 10 8 7 7 7 9 9 9 9 10 11 11 12 13 14 14 14
14 14 7 8 8 9 10 10 10 11 11 11 12 12 12 12 12 11 11 12 13 13 13 13 14 14 14 13 12 12 12 12 12 12 12 13 13 13 13 12 13 13 13 14 14 14 14 15 16 16 13 8 5 4 5 7 8 8 7 6 5 6 8 9 9 9 10 11 11 11 12 14 15 16
14 10 5 9 8 9 10 10 10 11 11 12 12 12 12 13 12 11 11 13 14 13 13 13 14 13 13 13 12 13 13 13 13 13 13 12 12 12 12 12 11 12 14 16 16 15 15 15 15 14 12 9 5 4 5 7 7 6 6 5 3 5 8 9 9 10 12 11 11 12 12 13 15 16
11 6 6 8 7 9 10 9 9 10 11 11 12 12 12 13 12 11 12 13 13 13 12 12 13 12 13 13 13 14 15 15 14 14 13 12 12 12 11 11 11 11 13 15 16 15 15 14 13 11 10 8 5 3 5 7 7 7 6 3 2 7 10 9 8 11 13 13 13 13 13 13 14 13
7 5 7 7 7 8 9 9 10 11 11 12 12 13 13 13 13 12 12 12 12 13 13 12 12 12 12 13 14 15 15 15 13 12 11 11 12 11 11 10 10 10 11 13 15 14 14 13 11 9 7 4 3 4 5 7 7 6 5 3 5 10 10 7 9 14 16 15 14 15 16 16 16 14
6 6 6 7 8 9 10 11 11 12 12 13 13 13 13 13 13 12 13 13 13 14 13 12 12 12 12 12 13 14 15 15 13 11 11 12 12 11 10 10 10 9 9 12 14 14 12 11 10 8 7 5 4 5 6 6 6 7 7 7 9 8 7 8 13 16 16 15 15 16 17 17 16 16
8 8 8 9 10 11 11 12 13 14 14 14 13 13 12 13 15 15 14 13 13 12 12 12 12 12 12 12 11 12 14 14 12 11 11 11 11 9 9 9 9 8 8 10 12 11 9 11 10 8 7 7 7 7 7 7 8 10 12 10 8 8 11 14 16 14 13 13 14 15 16 16 14 13
10 10 10 10 12 12 12 14 14 14 14 14 13 13 13 14 16 15 14 12 12 12 12 12 12 12 12 12 11 11 11 11 10 10 8 8 9 10 9 8 7 7 5 7 9 7 6 10 10 7 7 8 8 8 9 10 11 12 12 12 12 15 16 16 14 12 12 13 13 13 14 14 13 13
12 12 12 12 13 13 14 14 14 14 15 14 14 13 14 15 15 14 12 12 12 12 13 12 12 12 13 12 11 10 10 9 9 8 6 5 6 7 6 6 6 5 2 3 5 3 4 8 8 5 6 8 9 10 10 11 12 12 13 14 17 18 17 16 15 15 14 12 10 9 9 11 14 17
13 13 14 14 14 14 14 15 15 15 15 14 14 15 15 15 15 13 12 12 12 12 13 12 11 11 12 11 10 10 10 9 8 7 6 5 5 5 6 7 7 4 1 2 4 2 4 6 5 5 7 8 9 10 10 11 12 13 14 16 16 16 16 18 18 18 16 12 7 5 9 14 18 19
Wind_Direction
288 277 265 248 245 245 238 238 237 231 228 226 223 221 215 208 204 229 232 222 223 227 227 234 242 241 243 248 248 248 250 245 238 234 232 233 234 230 227 226 225 224 224 223 222 220 218 218 220 222 225 226 226 226 226 226 230 235 239 242 244 245 245 244 242 242 243 245 246 246 247 247 247 248
293 283 271 253 250 247 239 242 241 229 224 227 230 227 219 214 215 224 237 239 224 212 215 226 236 247 256 259 253 250 253 251 240 233 227 229 238 239 232 229 229 228 226 224 221 218 216 217 219 222 224 227 229 230 229 228 231 235 239 242 243 244 245 247 247 246 247 248 249 250 250 249 250 250
297 288 279 271 264 250 238 240 240 232 229 230 230 230 224 219 221 226 229 239 233 219 212 214 220 241 266 267 255 249 254 249 236 233 227 223 236 248 240 233 232 231 229 227 222 219 218 218 218 220 224 227 230 231 232 232 233 236 240 243 245 246 246 248 250 250 250 252 253 254 253 252 253 253
299 287 282 285 279 262 250 246 244 240 237 232 228 230 229 223 223 225 223 222 243 238 227 220 220 241 261 261 253 247 246 237 229 234 231 218 222 240 241 235 234 234 233 231 227 225 224 223 222 222 223 226 228 230 231 232 235 238 241 243 247 249 249 250 251 252 252 253 254 255 255 254 254 255
310 296 288 292 293 278 262 258 254 248 244 237 229 227 225 223 223 222 220 222 245 250 243 240 239 242 247 249 254 251 236 223 222 232 228 215 217 231 236 233 234 234 234 235 233 230 229 229 228 228 226 226 228 228 230 232 235 239 241 243 246 249 251 251 252 253 253 254 254 256 256 257 257 258
323 309 292 287 295 288 268 264 259 250 246 240 233 227 222 219 221 220 218 220 230 245 248 247 245 248 250 249 263 265 237 221 222 223 216 213 219 228 230 234 236 232 231 233 235 234 233 233 233 232 232 231 231 230 231 233 235 237 240 243 246 248 250 252 253 253 254 254 255 256 258 259 260 262
322 319 310 298 298 295 283 276 267 254 246 239 237 235 230 226 226 224 222 222 228 237 246 249 245 245 246 246 267 275 249 225 219 211 206 211 215 210 212 236 247 239 229 228 232 235 234 233 233 233 234 236 236 236 235 236 238 240 242 245 247 249 251 253 254 255 255 256 257 258 259 260 261 262
323 320 318 316 310 305 302 291 279 268 256 246 243 240 236 237 236 233 230 227 229 234 241 248 247 248 247 244 258 273 257 233 217 208 201 203 209 207 211 235 248 241 231 226 229 234 234 232 231 233 236 238 240 240 240 241 241 243 245 247 249 251 253 254 256 257 258 258 259 259 261 261 262 263
324 319 311 314 316 311 304 292 283 280 270 256 249 240 235 237 236 232 233 234 236 237 238 245 250 254 253 246 241 247 248 236 214 196 188 184 191 201 207 216 215 212 213 218 224 229 232 232 231 232 235 237 239 241 242 243 243 243 245 247 250 252 254 256 258 259 260 259 259 260 260 262 264 265
321 320 312 306 305 302 301 297 290 289 276 254 246 239 232 235 242 241 239 243 247 245 242 248 255 256 252 248 241 234 239 237 215 188 176 171 168 170 168 159 163 177 185 194 207 218 226 230 230 232 235 236 238 239 240 242 244 246 248 251 254 257 260 261 262 262 262 262 262 263 264 264 265 266
319 321 311 301 298 296 299 296 285 286 279 250 246 244 231 234 253 251 243 245 249 247 246 248 252 257 257 257 253 246 248 246 220 190 175 169 163 153 149 149 150 155 166 171 172 183 205 218 224 230 235 238 240 242 243 244 245 247 251 253 256 259 261 262 263 263 263 263 263 263 265 266 266 267
317 322 314 305 301 297 305 306 279 265 276 244 247 250 217 225 249 249 241 241 241 241 249 251 249 258 264 261 258 255 253 251 227 196 178 167 165 158 150 151 151 151 161 164 157 155 167 184 197 211 222 230 236 240 241 243 242 243 246 247 249 251 256 260 261 260 261 261 261 262 265 268 271 274
316 321 314 306 299 286 297 316 78 136 143 169 192 141 115 191 239 260 252 226 226 236 259 272 266 262 265 261 255 252 248 244 232 203 173 159 163 163 157 158 163 165 166 164 158 161 174 178 176 184 198 208 221 231 235 237 237 236 237 238 241 247 254 257 258 259 261 264 268 273 274 276 277 279
316 319 312 309 305 283 285 294 154 161 163 165 174 147 112 121 131 40 30 71 57 23 336 318 300 274 263 256 256 256 239 223 214 201 182 166 161 160 155 151 162 172 175 172 163 164 183 186 175 174 184 190 202 215 220 222 222 218 217 218 217 226 236 239 246 258 267 273 283 292 291 291 291 289
318 322 321 325 315 285 275 253 213 225 228 218 218 195 164 167 174 27 38 60 50 38 20 359 346 317 284 254 251 266 235 209 204 201 194 181 169 168 163 158 170 176 176 172 158 150 168 181 174 168 176 183 189 188 180 186 190 172 160 150 135 141 158 158 164 194 228 3 11 20 14 1 349 335
321 328 330 337 333 311 305 285 241 233 228 221 228 223 211 217 238 253 281 38 41 42 23 6 10 7 357 333 226 256 237 213 205 199 197 188 178 174 167 159 168 174 171 162 145 129 142 171 170 157 158 171 170 158 151 153 144 128 122 116 116 123 125 117 110 100 79 58 42 32 21 9 356 343
329 339 340 348 355 351 335 305 242 226 232 229 214 192 190 202 227 257 274 298 8 39 23 5 27 26 22 53 88 112 213 212 205 200 198 191 178 163 149 143 151 162 167 154 135 120 134 162 155 134 128 138 139 132 129 130 128 123 116 110 109 111 109 105 95 78 62 44 24 8 354 342 332 325
339 350 354 6 9 359 337 341 78 168 234 246 163 137 137 136 118 289 273 256 15 56 69 342 49 48 46 69 89 98 123 166 185 187 182 173 154 133 122 121 129 143 154 142 123 111 133 154 142 124 120 122 120 114 112 112 112 113 111 105 101 97 93 90 79 63 48 24 3 348 338 330 322 317
343 342 346 12 22 9 344 339 327 224 217 184 147 139 127 92 60 51 55 88 143 153 129 94 80 78 75 81 91 97 110 127 129 132 147 147 137 122 110 104 108 114 131 137 123 110 129 146 133 119 120 120 114 110 106 100 96 96 96 91 84 77 70 62 48 35 21 5 354 347 341 336 331 329
338 338 338 2 28 14 350 345 345 181 150 144 146 134 109 84 69 65 68 76 91 109 107 98 95 92 90 94 99 102 108 113 111 110 117 125 124 115 101 91 90 90 104 125 123 112 125 141 131 121 120 117 109 105 101 93 84 76 74 69 62 52 43 36 28 23 18 12 7 1 355 352 348 351
331 349 355 354 356 356 351 357 30 95 126 137 138 123 105 98 90 86 87 92 98 105 107 106 105 103 106 109 109 111 112 112 118 117 110 113 121 116 103 89 82 82 95 115 115 106 117 138 132 120 114 106 98 92 87 81 72 61 55 50 46 40 36 34 31 31 27 22 23 20 16 14 9 14
339 353 3 359 346 353 4 17 57 96 125 134 130 119 115 112 105 102 103 102 103 104 104 106 109 109 112 113 108 107 107 111 121 115 103 108 120 114 109 108 97 85 87 104 109 102 108 131 133 121 110 95 84 81 77 69 62 53 42 38 39 39 40 41 40 38 33 26 27 28 28 29 27 32
10 4 4 3 357 357 8 23 69 104 128 136 132 129 126 119 115 117 116 110 108 107 105 106 106 103 102 104 101 99 100 102 107 107 104 111 116 113 115 118 111 88 72 93 112 108 106 123 133 131 124 98 79 83 83 77 74 59 38 37 40 37 37 42 42 38 31 24 29 35 36 35 32 32
54 20 352 355 356 352 5 29 87 127 140 142 140 138 131 125 127 130 125 119 115 109 104 100 97 96 96 97 96 96 97 99 102 104 105 106 111 118 123 121 114 103 84 98 113 112 108 116 123 128 131 122 109 101 87 81 84 71 54 54 51 43 43 50 49 42 35 32 36 37 32 28 27 31
71 16 340 351 357 350 66 64 86 136 146 143 142 144 138 133 136 133 122 116 111 106 100 92 87 88 91 92 93 94 94 96 100 105 109 112 114 120 125 122 115 107 101 107 115 114 112 108 105 108 112 115 124 119 93 74 69 67 68 69 61 56 60 61 51 39 27 24 25 21 19 19 21 27
84 356 349 3 4 27 113 104 94 127 147 147 144 145 139 131 125 120 116 114 111 106 102 95 89 86 85 86 89 91 92 94 98 101 105 109 113 114 118 121 117 109 107 112 115 117 118 111 105 107 109 114 128 125 100 80 73 66 61 60 53 48 53 58 49 27 14 18 16 10 17 23 19 22
91 354 355 7 20 65 97 117 114 115 134 137 130 126 124 119 115 115 120 123 119 113 106 99 93 88 86 87 89 90 92 94 97 100 101 103 107 110 110 109 106 102 103 109 111 111 113 114 113 110 107 119 133 126 105 91 85 74 71 75 55 40 45 49 38 20 12 10 7 10 25 25 14 9
34 324 338 9 66 83 93 118 129 129 130 128 125 125 124 122 121 125 128 125 119 112 103 98 95 92 93 94 94 93 93 93 93 94 95 95 97 99 100 98 95 90 89 95 102 103 100 99 101 99 92 104 119 121 122 115 93 76 80 84 62 41 44 39 29 19 1 349 356 17 28 15 3 356
297 311 68 111 107 104 108 117 129 135 133 129 131 132 126 123 130 135 132 126 119 112 106 103 104 104 104 102 98 95 93 93 92 91 91 90 88 88 89 88 88 86 84 85 89 93 93 90 92 91 89 95 97 100 120 131 115 89 74 58 51 65 49 31 25 12 348 345 4 28 22 6 358 353
100 121 128 132 128 119 115 120 128 130 125 123 129 130 118 109 122 131 129 125 119 116 114 112 111 111 107 102 97 94 92 91 90 90 92 92 91 86 82 81 80 78 80 82 85 91 94 94 100 102 96 95 92 83 91 114 117 101 72 46 50 67 38 24 23 0 346 356 17 24 15 7 1 358
102 117 126 131 129 121 118 125 127 121 109 101 107 116 118 119 122 123 123 123 123 122 121 120 120 117 111 104 101 101 101 98 94 95 101 108 109 101 91 88 85 77 72 72 76 85 91 92 102 108 100 94 91 81 80 89 90 83 64 46 49 53 28 22 17 356 351 6 17 14 11 10 6 2
106 109 114 119 121 119 116 119 120 113 107 111 111 112 120 123 121 119 119 119 121 123 123 124 125 124 121 117 113 109 103 97 95 97 100 106 112 109 101 99 97 90 80 72 68 69 75 78 84 94 97 92 84 76 78 81 74 63 54 47 46 47 39 26 10 356 357 5 6 4 6 5 359 359
124 124 132 136 142 145 137 130 134 135 130 127 123 122 126 127 123 121 120 118 118 120 122 124 125 122 118 115 111 107 101 97 97 98 96 96 99 98 95 94 94 90 84 77 69 62 58 59 70 82 88 90 87 81 77 76 68 54 48 44 42 44 37 19 2 358 358 358 357 356 357 355 354 2
221 232 214 196 188 179 161 148 148 145 137 134 134 135 136 133 126 123 123 123 125 126 125 125 123 121 118 114 111 107 102 98 97 95 96 101 103 101 98 95 93 90 83 74 66 59 51 45 63 101 100 93 91 85 75 70 68 59 47 43 44 38 22 6 3 4 0 360 1 356 350 348 348 353
261 265 238 213 197 180 167 161 163 161 151 143 137 131 126 124 123 123 125 128 129 129 127 128 127 125 123 120 118 115 109 105 101 93 89 92 94 96 98 95 91 89 84 74 65 57 50 47 59 105 134 126 104 85 67 58 58 58 50 46 43 29 13 5 5 5 1 1 1 352 344 342 340 340
280 281 249 208 180 163 159 163 165 160 148 137 131 127 125 124 124 126 128 130 129 126 124 124 122 119 119 118 118 120 118 114 111 107 103 102 99 98 100 99 95 91 85 79 73 63 52 48 47 51 75 110 108 93 71 55 46 39 40 47 41 23 12 5 1 2 360 355 351 348 344 338 331 329
288 284 241 169 149 147 153 157 155 150 146 143 139 136 132 128 126 128 128 127 125 121 116 113 110 111 114 116 114 113 110 108 108 110 111 112 110 106 102 100 102 102 96 89 82 71 59 51 44 38 38 43 56 74 63 41 27 22 29 39 36 11 0 358 357 355 350 346 343 341 336 329 323 322
286 280 181 152 161 163 155 153 154 151 147 143 137 132 127 124 124 125 122 118 119 120 120 120 121 122 121 118 112 106 101 96 89 86 88 92 96 98 96 93 95 99 97 92 85 74 62 51 43 38 34 30 32 42 20 1 354 356 355 354 9 5 352 348 346 343 339 338 334 328 325 324 321 320
280 257 175 166 173 161 152 155 156 148 141 138 134 131 132 135 135 133 130 129 129 130 128 126 124 122 117 114 111 105 98 92 84 79 77 78 80 82 85 86 86 90 92 88 82 74 62 48 37 30 23 16 13 12 345 327 328 343 344 328 351 358 347 337 332 332 331 330 328 324 324 325 323 324
263 217 185 178 166 158 160 162 155 146 142 142 142 142 146 148 146 143 142 138 130 123 121 118 116 115 114 112 113 112 107 101 95 89 84 84 86 83 78 79 82 86 88 86 81 73 60 42 24 12 6 358 340 337 326 311 317 349 16 8 342 343 341 335 330 330 328 327 326 323 321 323 325 328
226 197 196 184 173 173 170 160 155 154 152 150 152 155 156 154 151 146 140 132 125 123 126 127 124 122 119 116 118 122 122 120 115 108 101 99 98 90 79 76 79 80 84 87 86 77 57 34 16 10 15 15 359 347 342 332 334 342 341 335 336 338 336 331 328 323 319 317 316 313 312 315 319 318
204 196 205 189 179 179 171 163 162 161 157 157 157 153 147 144 142 138 133 131 135 138 137 134 128 122 117 116 118 118 119 122 128 129 122 115 109 100 89 81 73 68 73 86 91 82 49 25 20 23 22 17 7 353 344 340 338 327 319 320 324 316 311 317 320 316 311 310 308 304 303 306 309 308
193 196 205 189 181 180 172 168 168 162 160 163 160 148 141 139 137 137 139 144 148 146 138 132 130 128 126 126 125 122 119 121 126 129 127 122 116 112 109 99 83 72 70 84 95 89 32 17 22 22 9 1 354 342 332 325 322 317 312 312 310 307 309 317 320 317 312 306 298 293 292 292 291 294
187 200 204 187 183 183 175 172 170 165 165 170 164 153 149 148 146 149 155 156 151 143 138 136 134 134 134 134 134 137 139 135 132 132 131 124 117 115 122 129 119 107 99 104 109 97 12 11 20 10 349 341 329 319 314 308 305 305 305 306 308 310 314 318 318 313 309 303 295 291 293 297 299 301
190 206 202 186 184 185 178 176 173 169 171 174 165 154 153 157 162 164 162 156 151 145 143 145 144 142 142 143 148 157 157 147 140 146 155 164 164 158 157 154 142 130 156 157 136 101 7 7 6 340 330 327 317 309 306 302 301 304 306 306 308 311 313 314 313 311 308 305 299 296 311 316 314 308
Height
798 798 798 798 799 799 798 799 799 801 802 803 803 803 802 804 806 806 806 804 802 803 804 805 805 806 807 808 809 809 810 811 813 814 817 820 820 820 821 822 823 824 825 826 827 828 830 831 833 834 836 837 839 840 842 843 844 845 846 847 848 849 849 850 850 851 851 852 852 853 853 854 855 855
796 797 797 796 797 797 797 797 797 798 800 801 801 801 801 801 802 803 805 804 802 801 802 803 803 804 806 807 807 806 807 809 811 811 814 819 820 820 820 821 822 823 823 824 826 827 828 829 831 832 834 835 837 838 840 841 842 843 844 845 846 847 848 848 849 850 850 850 851 851 852 852 853 853
795 795 795 795 795 795 796 795 795 796 797 798 799 800 800 800 800 801 803 803 801 800 801 802 802 802 803 805 805 805 806 807 809 810 811 815 819 820 820 820 821 822 823 823 824 825 826 828 829 830 832 833 835 836 838 839 840 842 843 843 844 845 846 847 847 848 849 849 849 850 850 850 851 851
794 793 793 793 793 793 793 794 794 794 794 795 797 798 799 798 798 800 801 802 800 800 800 801 801 800 801 804 805 805 805 805 807 809 809 811 814 816 818 819 820 820 821 822 823 824 825 826 827 829 830 831 832 834 836 837 839 840 841 842 843 843 844 845 846 846 847 847 848 848 848 849 849 849
793 793 792 792 792 791 791 792 792 792 793 794 794 795 795 795 796 798 799 799 799 799 799 800 800 801 801 803 804 803 803 804 806 807 808 810 812 813 814 816 818 818 819 820 820 822 823 824 826 827 828 829 831 832 834 835 837 838 839 840 840 841 842 843 843 844 845 845 846 846 847 847 847 848
792 792 791 792 791 790 790 790 790 790 790 791 792 792 793 793 794 795 797 798 798 798 798 798 799 800 801 801 802 802 803 803 804 805 807 810 811 810 810 811 812 813 815 816 818 819 820 822 823 825 827 828 829 830 832 833 834 835 836 837 838 839 840 840 841 842 843 843 844 845 845 845 846 846
792 791 790 790 789 788 788 788 789 788 788 788 789 790 791 792 793 794 795 795 796 797 797 797 798 798 799 799 800 802 803 803 803 804 805 808 808 807 807 807 807 807 809 812 815 817 818 820 821 823 825 826 828 829 830 831 832 833 834 835 835 836 837 838 839 840 840 841 842 843 843 843 844 844
791 790 789 788 788 787 787 787 787 787 787 787 788 789 790 790 791 792 793 794 794 795 795 795 796 796 797 797 799 802 803 803 803 803 804 805 805 805 805 805 805 806 808 810 813 815 816 818 819 821 823 824 826 827 828 829 830 830 831 831 832 833 834 835 836 837 838 839 840 840 841 841 842 842
790 789 789 788 788 787 787 787 787 786 786 787 787 788 788 788 789 790 791 792 793 793 793 793 794 795 796 796 796 800 802 802 802 803 803 803 803 804 804 803 803 805 806 808 810 812 813 815 816 818 820 822 824 825 826 826 826 827 827 828 829 830 832 833 834 835 836 836 837 838 838 839 839 840
790 789 788 787 787 786 786 786 786 786 786 786 786 786 787 787 788 788 790 791 792 792 792 792 793 793 795 796 796 798 801 801 801 802 802 802 803 803 802 802 802 803 804 805 806 808 810 811 813 815 818 820 821 822 822 822 823 824 825 826 828 829 831 832 833 833 833 834 834 835 836 836 836 837
789 788 787 786 786 785 784 784 785 785 785 785 784 783 785 786 787 788 789 789 790 790 790 791 792 792 793 794 795 797 799 801 801 801 801 801 802 802 801 801 801 802 803 804 804 806 807 809 811 813 815 817 818 818 819 820 821 822 824 825 826 828 829 830 831 831 831 831 831 832 833 833 833 833
788 788 787 786 785 784 784 783 783 783 784 784 783 782 783 785 787 787 788 788 788 789 789 790 790 791 791 792 793 796 798 799 800 800 800 800 800 801 800 800 801 801 802 803 804 805 807 808 809 810 812 814 815 815 816 817 819 819 821 822 823 825 826 828 828 828 828 828 828 829 829 830 830 830
788 787 786 785 785 784 784 783 783 783 783 783 783 783 783 784 785 786 787 787 787 787 788 788 788 789 789 789 791 794 796 797 798 798 799 800 800 800 799 799 800 801 802 802 802 804 805 806 808 809 810 811 812 813 814 815 816 817 818 819 820 822 823 824 824 825 826 827 826 826 826 827 827 828
787 786 785 784 784 784 784 783 783 783 784 784 784 784 783 784 784 785 786 785 785 786 786 787 787 787 787 787 789 792 792 793 795 796 797 798 798 798 799 799 800 800 801 801 802 803 805 806 808 808 809 809 810 811 812 814 815 816 816 817 818 820 820 820 822 823 824 825 824 824 824 825 825 826
786 786 785 784 784 784 783 783 784 784 784 784 784 784 784 784 784 784 785 785 785 785 786 786 786 786 786 786 787 789 790 790 791 792 794 796 796 796 796 797 798 798 799 800 801 803 804 805 807 807 808 809 809 810 812 814 815 815 815 816 817 818 818 819 821 822 822 823 823 823 823 824 824 824
786 786 785 784 784 784 783 783 783 783 784 784 784 784 783 783 784 784 785 785 785 785 785 786 786 786 786 786 786 787 787 788 789 789 792 794 794 794 794 794 795 796 797 799 800 802 803 804 805 806 807 808 809 810 812 813 814 814 815 815 816 817 818 819 820 821 822 822 823 823 823 823 823 823
786 785 785 784 784 784 783 783 783 783 783 783 784 784 783 783 784 784 785 785 785 785 785 785 786 786 786 786 786 787 787 788 788 788 790 791 792 793 793 793 793 795 796 797 798 801 802 803 804 806 808 809 809 810 812 812 813 814 814 815 816 816 817 819 820 821 821 822 823 823 823 823 823 823
786 785 785 784 784 783 783 783 783 783 783 783 783 783 783 784 785 785 785 785 785 784 784 785 785 786 786 786 787 787 787 787 787 787 787 788 789 791 792 793 793 794 795 795 796 800 803 803 804 806 808 809 809 810 812 813 813 814 815 815 815 816 817 818 819 820 821 821 822 822 822 822 822 822
786 785 785 784 784 783 783 782 782 782 782 783 783 783 783 784 785 785 786 785 785 785 784 785 785 785 786 786 787 787 787 786 786 786 785 785 787 789 792 793 793 794 795 794 795 799 803 803 804 806 808 809 810 811 813 814 815 816 815 814 815 816 817 818 819 819 820 820 821 821 821 821 821 821
785 785 784 784 784 783 783 782 782 782 782 782 783 783 783 785 785 786 786 786 786 786 785 785 786 786 786 786 787 787 787 786 786 786 786 787 788 790 792 794 795 795 796 796 796 799 803 804 804 807 809 810 811 812 813 814 816 816 815 815 816 816 817 818 818 818 819 819 820 820 820 820 820 820
785 785 784 784 783 783 782 782 782 782 782 782 782 783 784 785 786 787 787 787 787 787 786 787 787 787 787 787 787 788 788 787 787 787 788 789 790 791 793 795 797 797 797 798 798 800 804 805 805 808 810 811 812 813 814 814 815 816 815 815 816 816 816 817 817 818 819 819 820 820 819 819 819 819
785 785 784 783 783 783 782 782 782 782 782 782 783 783 784 786 787 788 789 788 788 788 787 788 788 788 788 788 788 789 789 789 789 788 789 790 791 791 793 795 797 798 798 799 799 800 804 806 806 808 810 812 813 813 814 814 815 815 816 816 816 816 816 817 817 819 819 820 820 820 819 819 819 818
785 785 784 783 783 783 782 782 782 782 782 782 783 784 785 786 788 789 789 789 789 788 788 789 790 790 789 789 789 790 790 790 790 790 790 791 791 792 793 795 796 798 800 800 800 801 804 806 807 808 809 812 814 815 814 815 815 816 816 816 816 816 817 817 818 819 820 820 820 820 820 820 819 819
785 785 784 783 783 783 783 783 783 783 783 783 784 784 785 786 788 789 789 790 789 789 790 790 791 791 790 790 790 791 791 790 791 791 792 792 792 793 794 795 796 798 801 802 801 802 804 806 807 808 809 811 814 815 815 816 816 816 817 817 817 817 818 819 819 820 820 821 821 821 821 821 820 819
785 785 784 784 784 784 783 783 783 783 783 784 784 785 785 786 788 789 790 790 791 791 791 792 793 792 792 791 791 792 792 792 792 792 793 793 794 794 795 796 797 799 801 803 803 803 805 806 807 808 809 810 813 815 816 817 817 817 817 818 818 819 819 820 820 821 821 821 821 821 821 821 820 820
785 785 785 784 784 784 784 784 784 783 784 784 785 785 786 787 788 789 790 791 792 793 793 794 794 794 793 793 793 793 793 793 793 794 794 795 795 796 796 797 798 800 802 803 804 804 805 807 808 809 810 812 814 815 817 818 818 818 818 819 819 820 820 820 820 821 821 821 821 821 820 820 820 820
785 785 785 785 785 784 784 785 785 785 785 785 786 786 787 788 789 790 791 792 793 794 794 794 795 795 795 795 795 795 795 795 795 795 796 797 797 797 798 799 800 801 803 804 805 806 806 807 809 810 811 813 814 816 817 818 819 819 819 820 820 821 821 821 821 821 821 821 820 820 820 820 820 820
786 785 785 786 786 785 785 785 786 786 786 786 787 787 788 789 790 791 792 793 793 794 795 795 796 796 797 797 797 797 798 798 798 798 798 799 799 800 800 801 802 803 805 806 806 807 808 808 810 811 812 813 814 815 817 818 819 820 820 820 821 821 821 821 821 821 821 821 820 820 819 819 819 819
786 785 786 786 786 786 786 786 786 787 787 787 788 789 789 790 791 792 792 793 794 795 796 796 797 798 798 799 799 800 800 800 800 800 801 801 802 802 803 803 804 805 806 807 808 809 809 810 811 812 812 813 814 815 817 818 819 820 820 821 821 822 822 822 822 821 821 820 820 819 819 819 819 819
786 786 786 787 787 787 787 787 788 788 788 789 789 789 790 790 791 792 793 793 794 795 796 797 798 799 799 800 800 801 801 801 802 802 802 803 804 804 805 805 806 807 808 809 810 810 811 811 812 813 813 814 815 816 817 818 819 820 821 821 821 822 822 822 822 821 821 820 819 819 819 819 819 818
787 787 787 787 788 788 788 788 789 789 789 790 790 790 791 791 792 792 793 794 795 796 797 798 799 799 800 800 801 802 802 803 803 804 804 804 805 806 807 807 808 810 811 811 812 812 813 813 813 814 814 815 816 817 817 819 820 821 821 822 822 822 822 822 822 822 821 820 820 819 819 819 819 818
788 788 788 789 789 789 789 790 790 790 790 791 791 791 791 792 793 794 794 795 796 797 798 799 799 800 801 801 802 803 803 804 804 805 805 806 806 807 808 809 810 812 813 813 814 814 815 815 815 815 815 816 817 817 818 819 820 821 822 822 823 823 823 823 823 822 821 820 820 819 819 819 819 819
790 790 789 790 790 790 790 791 791 791 791 791 792 792 792 793 794 795 795 796 797 798 798 799 800 801 802 803 803 804 804 805 806 806 807 807 808 809 810 811 812 813 814 814 815 816 816 816 816 816 816 817 818 819 819 820 821 822 823 823 823 823 823 823 823 822 821 821 820 820 819 819 819 819
790 790 789 789 789 790 791 791 791 791 792 792 792 792 793 794 794 795 796 797 797 798 799 800 801 801 802 803 804 805 805 806 807 807 808 808 809 810 811 812 813 814 815 815 816 816 816 816 817 817 817 818 819 820 821 821 822 823 823 823 823 823 824 823 823 822 822 821 821 820 820 819 819 819
789 789 789 788 788 789 790 790 791 791 791 792 792 793 793 794 795 795 796 797 798 798 799 800 801 802 803 804 804 805 806 807 807 808 809 809 810 811 812 813 814 815 815 816 816 817 817 817 817 818 818 819 820 821 822 822 822 823 823 823 824 824 824 824 823 823 822 821 821 820 820 819 819 818
787 787 787 787 787 788 789 790 790 791 791 792 793 793 794 795 795 796 797 797 798 799 800 800 801 802 803 804 804 805 806 807 808 809 809 810 811 812 813 814 814 815 816 817 817 818 818 817 818 818 819 819 820 822 823 823 823 823 823 824 824 825 824 824 823 823 822 822 821 821 820 819 819 818
786 785 785 786 786 787 788 789 790 791 791 792 793 793 794 795 796 797 797 798 799 799 800 801 802 802 803 804 805 806 807 807 808 809 810 811 812 812 813 814 815 816 817 818 818 819 819 819 819 819 820 820 821 822 823 824 824 824 824 824 825 824 824 824 823 822 822 822 821 821 820 819 818 818
785 784 784 785 786 787 788 789 790 790 791 792 793 794 795 795 796 797 798 798 799 800 801 802 803 803 804 805 805 806 807 808 809 810 810 812 813 813 814 815 816 817 818 818 819 820 820 821 821 821 822 822 823 824 824 824 824 825 825 825 825 824 824 823 822 822 821 821 821 820 819 819 818 817
784 784 784 785 786 787 787 788 789 790 791 792 793 794 795 796 797 798 798 799 800 801 802 802 803 804 805 805 806 807 808 809 810 811 812 813 813 814 815 816 817 818 819 819 820 821 822 823 823 824 824 824 825 825 826 825 825 824 824 824 824 824 823 823 822 821 820 820 820 819 818 818 817 816
784 784 784 785 785 786 787 788 789 790 791 792 793 794 795 796 797 798 799 799 800 801 802 803 803 804 805 806 807 808 809 811 812 813 813 814 814 815 816 817 818 819 819 820 821 822 823 824 825 825 825 825 825 825 825 825 824 824 824 824 824 823 823 822 821 820 819 819 818 817 816 816 815 814
783 783 784 784 785 786 787 788 789 790 791 792 793 794 795 796 797 798 798 799 800 801 802 804 804 805 806 807 808 809 810 811 813 814 815 815 816 817 817 818 819 820 820 821 822 823 824 825 825 825 825 824 824 824 824 824 824 823 823 823 823 822 822 821 821 820 819 818 817 816 815 815 814 813
782 783 783 784 785 786 787 787 789 790 791 792 793 794 794 795 796 797 799 800 801 802 803 804 805 806 807 808 809 810 811 812 813 815 816 816 817 818 819 819 820 821 821 822 823 823 824 825 824 824 824 824 824 824 823 823 823 822 822 822 822 821 821 820 820 819 818 817 816 816 814 814 813 812
781 782 783 783 784 785 786 787 788 789 790 792 792 793 794 795 796 798 799 800 801 802 803 804 805 806 808 809 810 811 812 813 814 815 816 817 818 818 819 820 821 821 822 822 823 823 823 824 824 824 824 823 823 823 823 822 822 821 821 821 820 820 819 819 818 817 816 816 815 814 814 813 813 811
779 780 781 782 783 784 785 786 788 789 790 791 792 793 794 795 797 798 799 800 801 802 803 805 806 807 808 809 811 812 813 814 814 815 816 817 817 818 819 820 820 821 822 822 822 822 823 823 823 823 823 823 822 822 821 821 820 820 819 819 818 817 817 816 816 815 814 813 813 813 813 813 812 811
778 779 780 781 782 783 784 786 787 788 789 791 791 792 793 795 796 798 799 800 801 802 803 805 806 807 808 809 811 812 812 813 814 815 816 817 817 818 818 819 819 820 821 821 821 821 822 822 822 822 822 822 821 821 820 820 819 818 818 817 816 816 815 814 813 813 812 811 811 811 811 810 810 809